Location: Gro�sch�nbrunn
(49.5760°N, 11.8868°E)
Time: 01:20:54
(UTC+00:00)

Cosmos 2251 Rocket - Pass Details

Date: 18 September 2020
Orbit: 765 x 792 km, 74.0° (Epoch: 30 October)

Event Time Altitude Azimuth Distance (km) Brightness Sun altitude
Rises 20:05:45 0° 340° (NNW) 3,302 7.7 -26.0°
Reaches altitude 10° 20:08:19 10° 348° (NNW) 2,368 6.7 -26.3°
Enters shadow 20:12:49 38° 42° (NE) 1,196 4.4 -26.9°
